Tracking 35035 objects as of 16-Aug-2026
HD Live streaming from Space Station
objects crossing your sky now

COSMOS 723 DEB


COSMOS 723 DEB is no longer on orbit


NORAD ID: 7796
Int'l Code: 1975-024C
Launch date: April 2, 1975
Source: Commonwealth of Independent States (former USSR) (CIS)
Launch site: TYURATAM MISSILE AND SPACE COMPLEX (TTMTR)
Decay date: 1975-05-19

Note: This is SATELLITE DEBRIS
Your satellite tracking list
Your tracking list is empty




NASA's NSSDC Master Catalog

Two Line Element Set (TLE):
1 07796U 75024  C 75136.29530143  .02049534 +00000-0 +00000-0 0  9993
2 07796 065.0231 229.6008 0041255 340.3742 019.5797 16.22570066007049
Source of the keplerian elements: AFSPC